Visibility
15.0 15.0 15.0 15.0 15.0 15.0 15.0 15.0 15.0 15.0 15.0 15.0 15.0 15.0 15.0 15.0 15.0 15.0 15.0 15.0 15.0 15.0 15.0 15.0 15.0 15.0 15.0 15.0 15.0 15.0 15.0 15.0 15.0 3.9 4.3 7.4 8.3 8.9 15.0 15.0 15.0 15.0 15.0 15.0
15.0 15.0 15.0 15.0 15.0 15.0 15.0 15.0 15.0 15.0 15.0 15.0 15.0 15.0 15.0 15.0 15.0 15.0 15.0 15.0 15.0 15.0 15.0 15.0 15.0 15.0 12.3 15.0 15.0 15.0 15.0 15.0 15.0 15.0 9.0 2.4 5.6 13.7 14.1 15.0 15.0 15.0 15.0 15.0
15.0 15.0 15.0 15.0 15.0 15.0 15.0 15.0 15.0 15.0 15.0 15.0 15.0 15.0 15.0 15.0 15.0 15.0 15.0 15.0 15.0 15.0 15.0 15.0 15.0 15.0 3.4 12.4 15.0 15.0 15.0 15.0 15.0 15.0 0.3 0.8 4.6 7.0 12.3 15.0 15.0 15.0 15.0 15.0
15.0 15.0 15.0 15.0 15.0 15.0 15.0 15.0 15.0 15.0 15.0 15.0 15.0 6.7 15.0 15.0 15.0 15.0 15.0 15.0 15.0 15.0 15.0 15.0 15.0 15.0 13.4 2.7 15.0 15.0 15.0 15.0 15.0 15.0 1.5 1.6 2.6 9.2 15.0 15.0 15.0 15.0 15.0 15.0
15.0 15.0 15.0 15.0 15.0 15.0 15.0 15.0 15.0 15.0 15.0 15.0 15.0 1.6 15.0 15.0 15.0 15.0 15.0 15.0 15.0 15.0 15.0 15.0 15.0 15.0 15.0 4.3 15.0 15.0 15.0 15.0 15.0 15.0 1.7 1.2 4.9 15.0 6.8 15.0 15.0 15.0 15.0 15.0
15.0 15.0 15.0 15.0 15.0 15.0 15.0 15.0 15.0 15.0 15.0 15.0 15.0 15.0 15.0 15.0 15.0 15.0 15.0 15.0 15.0 15.0 15.0 15.0 15.0 15.0 15.0 14.6 15.0 15.0 15.0 15.0 15.0 15.0 12.1 12.7 3.9 12.0 11.1 5.4 14.8 15.0 15.0 15.0
15.0 15.0 15.0 15.0 15.0 15.0 15.0 15.0 12.7 15.0 15.0 15.0 15.0 15.0 15.0 15.0 15.0 15.0 15.0 15.0 15.0 15.0 15.0 15.0 15.0 15.0 15.0 15.0 15.0 15.0 15.0 15.0 15.0 15.0 4.0 11.4 8.0 2.7 15.0 14.8 10.9 15.0 15.0 15.0
3.4 15.0 15.0 15.0 15.0 14.2 6.9 15.0 13.6 0.7 15.0 15.0 15.0 15.0 15.0 15.0 15.0 15.0 15.0 15.0 15.0 15.0 15.0 15.0 15.0 15.0 15.0 15.0 15.0 15.0 15.0 15.0 15.0 15.0 14.8 15.0 8.6 2.8 15.0 15.0 15.0 15.0 15.0 15.0
8.8 15.0 15.0 15.0 15.0 15.0 15.0 13.6 15.0 0.1 14.6 0.2 15.0 15.0 15.0 15.0 15.0 15.0 15.0 15.0 15.0 15.0 15.0 15.0 15.0 15.0 15.0 15.0 15.0 15.0 15.0 15.0 15.0 15.0 15.0 15.0 2.7 1.6 15.0 15.0 11.2 12.4 15.0 15.0
15.0 1.7 15.0 15.0 15.0 15.0 15.0 15.0 1.7 13.3 0.2 1.1 15.0 15.0 15.0 15.0 15.0 15.0 15.0 15.0 15.0 15.0 15.0 15.0 15.0 15.0 15.0 15.0 15.0 15.0 15.0 15.0 15.0 15.0 15.0 15.0 15.0 3.3 10.7 15.0 15.0 6.8 10.0 13.1
15.0 0.7 13.2 15.0 15.0 9.8 0.8 3.0 2.2 3.8 0.3 0.1 0.2 12.4 15.0 12.2 15.0 0.1 0.7 4.0 4.1 0.3 0.6 15.0 15.0 15.0 15.0 15.0 15.0 15.0 15.0 15.0 15.0 15.0 15.0 15.0 13.6 3.1 5.6 15.0 15.0 15.0 10.8 15.0
14.8 2.8 0.5 15.0 15.0 2.2 2.2 0.2 0.3 0.1 0.2 0.1 0.1 1.5 4.1 14.7 15.0 0.1 0.1 0.6 0.3 0.2 5.3 0.4 0.6 0.7 15.0 15.0 15.0 15.0 15.0 15.0 15.0 15.0 15.0 15.0 14.7 4.2 4.9 7.0 14.8 4.5 1.4 4.5
6.2 12.1 2.3 15.0 15.0 7.6 1.5 0.1 0.1 0.6 0.2 0.2 0.1 11.2 15.0 15.0 3.6 0.8 0.2 0.2 0.1 0.2 0.6 2.0 6.1 3.6 15.0 15.0 15.0 15.0 15.0 15.0 15.0 15.0 15.0 9.5 9.5 3.3 2.2 3.8 2.3 15.0 15.0 14.6
15.0 11.7 15.0 11.2 15.0 15.0 7.7 1.4 0.4 0.4 0.1 0.1 0.8 1.6 15.0 1.1 0.3 0.6 0.4 0.3 0.1 0.1 0.1 0.1 0.2 0.2 15.0 15.0 15.0 15.0 15.0 15.0 15.0 15.0 9.3 2.8 12.5 7.9 3.1 6.9 9.7 15.0 5.4 3.0
15.0 8.5 15.0 15.0 15.0 15.0 15.0 0.3 9.1 7.9 11.5 0.1 5.6 1.7 2.6 0.1 0.1 0.1 0.1 0.1 0.1 0.2 0.1 0.1 0.1 0.5 15.0 15.0 15.0 15.0 15.0 15.0 15.0 14.9 13.0 15.0 10.9 15.0 5.4 4.7 8.4 6.6 15.0 7.2
15.0 9.7 15.0 15.0 15.0 15.0 0.6 4.1 15.0 15.0 15.0 0.1 0.4 1.9 14.9 9.5 14.0 0.3 0.1 0.1 0.1 0.1 0.1 0.1 0.2 1.5 15.0 15.0 15.0 15.0 15.0 15.0 15.0 14.8 12.0 15.0 15.0 15.0 4.3 5.9 3.9 3.2 3.9 3.5
15.0 11.3 15.0 15.0 15.0 12.0 1.0 2.5 15.0 15.0 15.0 0.1 0.1 0.2 0.5 0.2 0.2 0.2 0.1 0.1 0.1 0.1 0.1 0.1 0.1 0.1 0.6 14.4 15.0 2.4 15.0 15.0 8.8 13.0 6.5 15.0 15.0 6.3 4.4 3.9 3.4 3.0 5.5 10.9
15.0 15.0 15.0 4.9 15.0 12.3 15.0 2.5 15.0 13.4 15.0 3.7 15.0 15.0 9.2 0.8 0.3 0.4 0.1 0.1 0.1 0.1 0.1 0.1 0.1 0.1 0.5 13.8 15.0 15.0 10.7 15.0 15.0 15.0 10.4 15.0 11.8 15.0 14.4 4.3 6.7 4.3 6.4 6.7
15.0 15.0 15.0 3.8 3.8 15.0 15.0 15.0 15.0 14.7 3.7 15.0 15.0 9.6 7.8 8.4 9.9 13.1 12.5 0.1 0.1 0.1 0.1 0.1 0.1 0.1 2.8 5.7 5.5 3.3 7.4 12.2 4.0 0.8 11.1 15.0 15.0 15.0 15.0 9.6 6.6 8.0 11.1 12.0
15.0 15.0 15.0 15.0 5.1 5.1 15.0 15.0 15.0 15.0 3.1 15.0 15.0 0.5 0.3 0.2 0.1 3.9 0.2 0.1 0.1 0.1 0.1 0.1 0.1 0.8 1.2 0.9 12.5 15.0 15.0 15.0 0.7 3.6 15.0 15.0 15.0 14.8 8.1 5.1 3.3 8.1 5.0 4.9
15.0 15.0 15.0 11.9 7.4 15.0 15.0 15.0 15.0 13.1 15.0 15.0 12.1 0.3 0.1 0.1 0.1 0.1 0.2 0.2 0.1 0.1 0.1 0.1 0.2 0.2 3.2 0.9 8.5 0.9 15.0 8.9 12.8 14.7 15.0 15.0 15.0 15.0 15.0 15.0 9.5 9.6 6.2 3.3
14.1 15.0 15.0 15.0 11.0 15.0 15.0 15.0 15.0 15.0 15.0 15.0 3.4 2.7 0.1 1.3 0.4 0.6 0.8 0.2 0.1 0.1 0.1 0.1 0.1 0.2 0.6 0.3 1.2 0.1 0.0 0.4 15.0 15.0 1.1 0.5 4.5 15.0 15.0 1.9 1.4 10.7 14.0 5.2
14.7 15.0 15.0 15.0 15.0 15.0 15.0 15.0 15.0 15.0 15.0 8.1 0.2 1.6 0.7 0.3 0.2 0.4 0.2 0.3 0.1 0.1 0.1 0.2 0.1 0.2 0.3 0.5 0.3 0.1 0.0 0.3 0.7 0.1 0.1 0.1 0.2 1.3 15.0 0.2 0.1 0.1 2.6 0.3
15.0 15.0 15.0 15.0 15.0 15.0 15.0 15.0 15.0 15.0 15.0 13.3 0.9 0.2 0.9 0.1 0.3 0.3 0.9 0.2 0.3 0.1 0.1 0.1 0.1 0.1 0.3 0.5 0.2 0.1 0.1 0.0 0.0 0.0 0.0 0.0 0.0 0.0 0.0 0.1 0.9 0.1 0.1 0.1
15.0 15.0 15.0 15.0 15.0 15.0 15.0 15.0 15.0 15.0 15.0 15.0 14.2 5.8 1.8 0.2 1.5 0.2 0.6 0.2 0.2 0.1 0.1 0.1 0.1 0.1 0.2 0.4 0.4 0.1 0.1 0.1 0.0 0.0 0.0 0.0 0.1 0.0 0.0 0.1 0.1 0.1 0.0 13.5
15.0 15.0 15.0 15.0 15.0 15.0 15.0 15.0 15.0 10.4 2.0 4.3 0.4 0.4 15.0 5.2 0.3 0.3 1.6 1.7 0.1 0.1 0.1 0.1 0.1 0.1 0.1 0.6 0.7 0.2 0.1 0.1 0.0 0.0 0.0 0.0 0.0 0.1 0.1 0.1 0.1 2.8 9.6 15.0